Regional Weather Roundup
Issued by NWS

Home | Current Version | Previous Version | Text Only | Print | Product List | Glossary Off
Versions: 1 2 3 4 5 6 7 8 9 10 11 12 13 14 15 16 17 18 19 20 21 22 23 24 25 26 27 28 29 30 31 32 33 34 35 36 37 38 39 40 41 42 43 44 45 46 47 48 49 50

212
ASUS44 KLIX 172001
RWRLA
LOUISIANA WEATHER ROUNDUP
NATIONAL WEATHER SERVICE NEW ORLEANS LA
300 PM CDT THU APR 17 2014

NOTE: "FAIR" INDICATES FEW OR NO CLOUDS BELOW 12,000 FEET WITH NO
      SIGNIFICANT WEATHER AND/OR OBSTRUCTIONS TO VISIBILITY.
      SKY/WX - SKY CONDITION AND SIGNIFICANT WEATHER.
      TMP - AIR TEMPERATURE.    DP   - DEWPOINT TEMPERATURE.
      RH  - RELATIVE HUMIDITY.  PRES - PRESSURE.
      HX  - HEAT INDEX.         WCI  - WIND CHILL INDEX.

*  THESE STATIONS ARE NOT NWS OR FAA STATIONS AND ARE NOT UNDER
   NWS QUALITY CONTROL.

LAZ040-048-061>063-065-066-069-172100-
SOUTHEAST LOUISIANA

CITY           SKY/WX    TMP DP  RH WIND       PRES   REMARKS
N.O. AUDUBON   NOT AVBL
N.O. INTL ARPT CLOUDY    64  59  83 E15G23    30.14F
N.O. LAKEFRONT CLOUDY    63  60  90 E21       30.15F
N.O. DOWNTOWN* CLOUDY    63  55  77 NE7       30.14F
SLIDELL        CLOUDY    64  57  78 E7        30.17F
BATON ROUGE    CLOUDY    67  56  67 E8        30.15S
BOOTHVILLE     LGT RAIN  65  62  90 E14       30.14F FOG
BELLE CHASSE   CLOUDY    64  59  83 E13G21    30.14F FOG
BOGALUSA*        N/A     67  56  67 E8        30.19S
GALLIANO*      NOT AVBL
NEW ROADS*     NOT AVBL
GONZALES*      CLOUDY    65  59  82 NE5       30.15S
HAMMOND*       NOT AVBL
HOUMA*         CLOUDY    64  59  82 NE9       30.13F
PORT FOURCHON* CLEAR     68  63  83 NE9       30.15R HAZE

$$

LAZ041-044-053-054-172100-
SOUTHWEST LOUISIANA

CITY           SKY/WX    TMP DP  RH WIND       PRES   REMARKS
LAKE CHARLES   CLOUDY    64  53  67 E9        30.13R
LAFAYETTE      CLOUDY    63  55  75 NE7       30.13F
PATTERSON      CLOUDY    64  55  72 NE7       30.16F
SALT POINT       N/A     65  58  78 N5        30.11F
NEW IBERIA     CLOUDY    64  54  69 NE9       30.13F
CHENAULT AIRPK NOT AVBL

$$

LAZ027-028-172100-
CENTRAL LOUISIANA

CITY           SKY/WX    TMP DP  RH WIND       PRES   REMARKS
FORT POLK      LGT RAIN  60  53  77 NE6       30.14S
ALEXANDRIA INT LGT RAIN  61  53  75 E6        30.14F
ALEXANDRIA     CLOUDY    62  55  77 CALM      30.15F

$$

LAZ001-002-172100-
NORTHWEST LOUISIANA

CITY           SKY/WX    TMP DP  RH WIND       PRES   REMARKS
SHREVEPORT     CLOUDY    65  47  52 NE10      30.15F
BARKSDALE AFB  CLOUDY    64  46  51 E8        30.16F
DTN SHREVEPORT CLOUDY    64  47  53 NE5       30.16F

$$

LAZ014-016-172100-
NORTHEAST LOUISIANA

CITY           SKY/WX    TMP DP  RH WIND       PRES   REMARKS
MONROE         CLOUDY    65  49  56 CALM      30.20F
TALLULAH       CLOUDY    67  51  56 E7        30.18F

$$




USA.gov is the U.S. government's official web portal to all federal, state and local government web resources and services.